"2010-03-14 00:00:00",1759959,8.49,127.6,6.045,1.348,11.76,104.2668,10.2,11.18,18.81,0,110.2,13.35,10.98,89.6
"2010-03-14 00:00:30",1759960,8.46,131.9,6.72,1.149,12.95,104.2668,10.2,11.32,18.96,0,110.2,13.35,10.98,93.9
"2010-03-14 00:01:00",1759961,7.633,131.8,6.895,1.181,12.45,104.2665,10.2,11.39,19,0,110.2,13.36,10.98,93.8
"2010-03-14 00:01:30",1759962,8.4,134.9,7.099,1.355,13.35,104.2668,10.2,11.36,19.04,0,110.2,13.36,10.98,96.9
"2010-03-14 00:02:00",1759963,8.5,135.3,6.037,1.188,13.72,104.2665,10.2,11.36,19.01,0,110.2,13.36,10.98,97.3
"2010-03-14 00:02:30",1759964,7.07,125.7,5.308,0.959,11.06,104.2668,10.2,11.28,19.02,0,110.2,13.36,10.98,87.7
"2010-03-14 00:03:00",1759965,6.64,120.2,1.529,0.102,9.92,104.2668,10.2,11.17,19.01,0,110.2,13.39,10.98,82.2
"2010-03-14 00:03:30",1759966,7.942,123.8,7.585,1.364,12.72,104.2668,10.2,11.28,19.08,0,110.2,13.36,10.98,85.8
"2010-03-14 00:04:00",1759967,8.28,123,7.61,1.248,12.87,104.2668,10.2,11.37,19.14,0,110.2,13.36,10.98,85.0
"2010-03-14 00:04:30",1759968,8.62,123.3,6.522,1.248,13.47,104.2668,10.2,11.35,19.04,0,110.2,13.36,10.98,85.3
"2010-03-14 00:05:00",1759969,8.96,126.8,6.203,1.165,13.48,104.2668,10.2,11.33,19.01,0,110.2,13.36,10.98,88.8
"2010-03-14 00:05:30",1759970,8.75,123.9,6.492,1.314,12.63,104.2668,10.2,11.4,19.15,0,110.2,13.36,10.98,85.9
"2010-03-14 00:06:00",1759971,7.475,119.5,4.654,0.987,10.8,104.2668,10.2,11.2,19.02,0,110.2,13.36,10.98,81.5
"2010-03-14 00:06:30",1759972,7.196,115.5,1.442,0.141,9.84,104.2668,10.2,11.14,19.02,0,110.1,13.36,10.98,77.5
"2010-03-14 00:07:00",1759973,7.732,122.2,6.761,1.23,11.54,104.2668,10.2,11.3,19.2,0,110.2,13.36,10.98,84.2
"2010-03-14 00:07:30",1759974,8.46,128.1,7.656,1.316,12.83,104.2668,10.2,11.42,19.31,0,110.2,13.36,10.98,90.1
"2010-03-14 00:08:00",1759975,9.11,130,6.264,1.243,13.49,104.2668,10.2,11.38,19.35,0,110.2,13.36,10.98,92.0
"2010-03-14 00:08:30",1759976,9.34,131.8,6.464,1.039,13.8,104.2668,10.2,11.34,19.4,0,110.2,13.36,10.98,93.8
"2010-03-14 00:09:00",1759977,8.51,128.1,6.386,1.171,12.21,104.2668,10.2,11.31,19.45,0,110.2,13.36,10.98,90.1
"2010-03-14 00:09:30",1759978,7.404,120.1,1.436,0.086,9.74,104.2668,10.2,11.15,19.29,0,110.2,13.39,10.98,82.1
"2010-03-14 00:10:00",1759979,7.362,121,1.501,0.162,9.83,104.2668,10.2,11.14,19.33,0,110.2,13.39,10.98,83.0
"2010-03-14 00:10:30",1759980,8.63,127.6,7.163,1.31,12.29,104.2668,10.2,11.36,19.64,0,110.2,13.36,10.98,89.6
"2010-03-14 00:11:00",1759981,8.83,131.5,5.893,1.295,13.19,104.2668,10.2,11.33,19.6,0,110.2,13.36,10.98,93.5
"2010-03-14 00:11:30",1759982,7.844,126.2,3.847,1.097,11.07,104.2668,10.2,11.32,19.54,0,110.2,13.36,10.98,88.2
"2010-03-14 00:12:00",1759983,9.27,127.2,6.114,1.108,13.47,104.268,10.2,11.39,19.63,0,110.2,13.35,10.99,89.2
"2010-03-14 00:12:30",1759984,8.86,129,6.992,1.289,12.92,104.2793,10.23,11.38,19.55,0,110.2,13.35,11.02,91.0
"2010-03-14 00:13:00",1759985,7.42,119,2.098,0.11,9.71,104.2917,10.26,11.17,19.41,0,110.2,13.39,11.05,81.0
"2010-03-14 00:13:30",1759986,8.37,122.7,7.293,1.245,11.58,104.2945,10.27,11.25,19.4,0,110.2,13.35,11.06,84.7
"2010-03-14 00:14:00",1759987,8.63,127.6,6.685,1.363,12.53,104.2999,10.28,11.37,19.57,0,110.2,13.35,11.07,89.6
"2010-03-14 00:14:30",1759988,8.24,127.5,7.794,1.224,11.97,104.3007,10.28,11.35,19.62,0,110.2,13.35,11.07,89.5
"2010-03-14 00:15:00",1759989,8.21,124.4,6.143,1.307,11.75,104.3007,10.28,11.29,19.47,0,110.2,13.35,11.07,86.4
"2010-03-14 00:15:30",1759990,8.82,127.6,6.411,1.325,12.83,104.3007,10.28,11.46,19.57,0,110.2,13.35,11.07,89.6
"2010-03-14 00:16:00",1759991,9.3,127,6.968,1.156,12.67,104.3007,10.28,11.36,19.34,0,110.2,13.35,11.07,89.0
"2010-03-14 00:16:30",1759992,7.487,116.7,1.051,0.091,9.67,104.3007,10.28,11.21,19.17,0,110.2,13.39,11.07,78.7
"2010-03-14 00:17:00",1759993,7.646,116.3,2.021,0.243,9.74,104.3007,10.28,11.24,19.16,0,110.2,13.39,11.07,78.3
"2010-03-14 00:17:30",1759994,8.48,124.4,7.637,1.248,12.88,104.3016,10.29,11.51,19.42,0,110.2,13.36,11.07,86.4
"2010-03-14 00:18:00",1759995,9.01,126.1,6.899,1.297,13.59,104.3072,10.3,11.56,19.49,0,110.2,13.36,11.09,88.1
"2010-03-14 00:18:30",1759996,8.83,126,6.26,1.466,13.04,104.3157,10.32,11.45,19.39,0,110.2,13.36,11.11,88.0
"2010-03-14 00:19:00",1759997,9.23,123.2,7.31,1.155,12.8,104.3236,10.34,11.44,19.37,0,110.2,13.36,11.13,85.2
"2010-03-14 00:19:30",1759998,9.01,125,7.241,1.388,11.9,104.3284,10.35,11.42,19.39,0,110.2,13.36,11.14,87.0
"2010-03-14 00:20:00",1759999,7.628,121.7,1.405,0.122,9.65,104.3329,10.37,11.28,19.42,0,110.2,13.39,11.15,83.7
"2010-03-14 00:20:30",1760000,7.595,120,3.86,0.21,10.14,104.3343,10.37,11.37,19.57,0,110.2,13.39,11.16,82.0
"2010-03-14 00:21:00",1760001,9.35,130.2,5.996,1.179,13.82,104.3313,10.36,11.52,19.78,0,110.2,13.36,11.15,92.2
"2010-03-14 00:21:30",1760002,8.98,126.7,8.51,1.287,12.88,104.331,10.36,11.52,19.82,0,110.2,13.36,11.15,88.7
"2010-03-14 00:22:00",1760003,8.12,121.2,5.208,1.191,11.11,104.3316,10.36,11.4,19.71,0,110.2,13.36,11.15,83.2
"2010-03-14 00:22:30",1760004,8.58,131.7,7.155,1.384,12.3,104.3319,10.36,11.45,19.87,0,110.2,13.35,11.15,93.7
"2010-03-14 00:23:00",1760005,7.861,124.1,5.968,1.396,11.77,104.3281,10.35,11.48,19.9,0,110.2,13.35,11.14,86.1
"2010-03-14 00:23:30",1760006,7.757,118.7,3.911,0.866,10.12,104.3287,10.35,11.31,19.74,0,110.2,13.35,11.14,80.7
"2010-03-14 00:24:00",1760007,7.927,122.5,3.887,0.58,10.59,104.3287,10.35,11.44,19.96,0,110.2,13.36,11.14,84.5
"2010-03-14 00:24:30",1760008,9.64,130.5,4.772,1.213,13.84,104.3266,10.35,11.58,20.18,0,110.2,13.35,11.14,92.5
"2010-03-14 00:25:00",1760009,10.27,143.3,5.973,0.768,14.76,104.3257,10.35,11.58,20.35,0,110.2,13.35,11.14,105.3
"2010-03-14 00:25:30",1760010,8.04,126.6,6.704,1.14,11.28,104.3269,10.35,11.46,20.22,0,110.2,13.35,11.14,88.6
"2010-03-14 00:26:00",1760011,9.33,131.3,5.464,1.206,13.34,104.3249,10.34,11.47,20.21,0,110.2,13.35,11.13,93.3
"2010-03-14 00:26:30",1760012,7.765,127,4.987,0.992,10.83,104.3225,10.34,11.48,20.29,0,110.2,13.35,11.13,89.0
"2010-03-14 00:27:00",1760013,8.26,127.2,6.454,1.09,11.24,104.3219,10.34,11.32,20.19,0,110.2,13.35,11.13,89.2
"2010-03-14 00:27:30",1760014,8.97,128.9,5.143,1.354,12.54,104.3222,10.34,11.5,20.44,0,110.2,13.35,11.13,90.9
"2010-03-14 00:28:00",1760015,9.31,134.5,9.6,1.272,13.93,104.321,10.34,11.59,20.56,0,110.2,13.35,11.12,96.5
"2010-03-14 00:28:30",1760016,8.79,132.1,6.445,1.364,12.21,104.3198,10.33,11.46,20.51,0,110.2,13.35,11.12,94.1
"2010-03-14 00:29:00",1760017,8.46,134.2,8.3,1.143,12.52,104.3198,10.33,11.59,20.74,0,110.2,13.35,11.12,96.2
"2010-03-14 00:29:30",1760018,7.99,125.1,8.86,1.264,11.08,104.3187,10.33,11.35,20.55,0,110.2,13.35,11.12,87.1
"2010-03-14 00:30:00",1760019,8.58,129.6,6.55,1.132,12.64,104.3187,10.33,11.44,20.67,0,110.2,13.34,11.12,91.6
"2010-03-14 00:30:30",1760020,8.15,126.1,8.4,1.287,11.72,104.3187,10.33,11.44,20.75,0,110.2,13.35,11.12,88.1
"2010-03-14 00:31:00",1760021,9.41,136.3,5.951,1.181,14.05,104.3182,10.33,11.53,20.98,0,110.2,13.34,11.12,98.3
"2010-03-14 00:31:30",1760022,9.28,134.4,5.645,1.288,12.21,104.3008,10.28,11.43,20.92,0,110.2,13.34,11.07,96.4
"2010-03-14 00:32:00",1760023,9.51,134.3,6.143,1.339,12.4,104.286,10.25,11.43,20.99,0,110.2,13.34,11.03,96.3
"2010-03-14 00:32:30",1760024,9.14,138.4,6.559,1.235,11.53,104.286,10.25,11.4,20.99,0,110.2,13.34,11.03,100.4
"2010-03-14 00:33:00",1760025,8.53,138.1,5.155,1.303,12.56,104.2881,10.25,11.42,21.12,0,110.2,13.35,11.04,100.1
"2010-03-14 00:33:30",1760026,9.98,142.1,6.29,1.029,13.89,104.2878,10.25,11.43,21.21,0,110.1,13.35,11.04,104.1
"2010-03-14 00:34:00",1760027,10.4,141.9,6.703,1.019,13.79,104.2828,10.24,11.5,21.4,0,110.1,13.35,11.03,103.9
"2010-03-14 00:34:30",1760028,10.26,135.4,6.733,1.207,11.83,104.2665,10.2,11.33,21.31,0,110.2,13.35,10.98,97.4
"2010-03-14 00:35:00",1760029,10.16,140.8,7.916,1.237,12.31,104.258,10.17,11.36,21.39,0,110.2,13.35,10.96,102.8
"2010-03-14 00:35:30",1760030,9.62,144.3,7.832,1.137,12.09,104.2595,10.18,11.36,21.54,0,110.2,13.35,10.97,106.3
"2010-03-14 00:36:00",1760031,10.05,142.7,6.411,1.454,12.85,104.2601,10.18,11.34,21.65,0,110.2,13.35,10.97,104.7
"2010-03-14 00:36:30",1760032,10.79,149.9,5.596,0.945,14.7,104.257,10.17,11.45,21.77,0,110.2,13.35,10.96,111.9
"2010-03-14 00:37:00",1760033,10.13,147.3,6.78,1.117,14.24,104.242,10.13,11.41,21.71,0,110.2,13.35,10.92,109.3
"2010-03-14 00:37:30",1760034,8.98,151,6.598,1.39,12.95,104.23,10.1,11.33,21.88,0,110.2,13.35,10.89,113.0
"2010-03-14 00:38:00",1760035,8.83,143.4,6.153,0.949,10.85,104.2292,10.1,11.21,21.76,0,110.2,13.35,10.89,105.4
"2010-03-14 00:38:30",1760036,9.47,147.3,5.916,1.357,12.04,104.2306,10.1,11.19,21.59,0,110.2,13.35,10.89,109.3
"2010-03-14 00:39:00",1760037,9.77,147.6,7.285,1.158,12.62,104.2277,10.1,11.21,21.68,0,110.2,13.35,10.88,109.6
"2010-03-14 00:39:30",1760038,10.31,142.1,5.51,1.321,13.93,104.2215,10.08,11.35,22.11,0,110.2,13.35,10.87,104.1
"2010-03-14 00:40:00",1760039,10.26,145.6,6.442,0.817,14.92,104.2007,10.03,11.41,22.47,0,110.2,13.35,10.81,107.6
"2010-03-14 00:40:30",1760040,9.29,145.3,6.109,1.242,12.72,104.1982,10.02,11.25,22.24,0,110.2,13.35,10.81,107.3
"2010-03-14 00:41:00",1760041,7.944,140,5.763,0.978,11.3,104.1991,10.02,11.19,22.15,0,110.2,13.35,10.81,102.0
"2010-03-14 00:41:30",1760042,8.07,142.7,4.602,0.852,10.74,104.1991,10.02,11.12,22.23,0,110.2,13.35,10.81,104.7
"2010-03-14 00:42:00",1760043,7.852,140.2,1.887,0.241,10.16,104.1988,10.02,11.08,22.17,0,110.2,13.39,10.81,102.2
"2010-03-14 00:42:30",1760044,10,150.1,7.227,1.511,13.98,104.1921,10.01,11.33,22.55,0,110.2,13.36,10.79,112.1
"2010-03-14 00:43:00",1760045,10.38,155,5.853,1.077,14.6,104.1715,9.95,11.27,22.44,0,110.2,13.36,10.74,117.0
"2010-03-14 00:43:30",1760046,10.42,154.9,4.92,1.265,13.97,104.1653,9.94,11.26,22.54,0,110.2,13.36,10.72,116.9
"2010-03-14 00:44:00",1760047,10.38,154.7,7.006,1.086,11.63,104.1653,9.94,11.07,22.28,0,110.2,13.36,10.72,116.7
"2010-03-14 00:44:30",1760048,10.45,152,7.219,1.225,11.5,104.1653,9.94,11.11,22.24,0,110.2,13.36,10.72,114.0
"2010-03-14 00:45:00",1760049,8.96,142.8,3.064,0.339,9.87,104.1624,9.93,10.94,22.21,0,110.2,13.39,10.72,104.8
"2010-03-14 00:45:30",1760050,9.45,147,7.614,1.403,11.89,104.1514,9.9,11.04,22.48,0,110.1,13.35,10.69,109.0
"2010-03-14 00:46:00",1760051,11.28,157.1,3.948,1.033,14.71,104.1444,9.88,11.27,22.57,0,110.2,13.35,10.67,119.1
"2010-03-14 00:46:30",1760052,11.48,155.8,5.279,0.544,14.99,104.1339,9.86,11.21,22.64,0,110.2,13.35,10.64,117.8
"2010-03-14 00:47:00",1760053,10.49,152.7,5.435,1.221,12.31,104.1314,9.85,11.01,22.36,0,110.1,13.35,10.64,114.7
"2010-03-14 00:47:30",1760054,10.22,156.1,9.22,1.134,11.75,104.1314,9.85,11.02,22.35,0,110.1,13.35,10.64,118.1
"2010-03-14 00:48:00",1760055,9.23,148.2,2.031,0.228,9.82,104.1289,9.84,10.87,22.13,0,110.1,13.39,10.63,110.2
"2010-03-14 00:48:30",1760056,9.32,150.8,2.341,0.181,10.21,104.1201,9.82,10.85,22.22,0,110.1,13.39,10.61,112.8
"2010-03-14 00:49:00",1760057,10.83,157.6,7.029,1.071,14,104.1094,9.79,11.14,22.65,0,110.1,13.35,10.58,119.6
"2010-03-14 00:49:30",1760058,11.68,159.8,5.669,0.912,14.45,104.0984,9.77,11.11,22.78,0,110.1,13.35,10.55,121.8
"2010-03-14 00:50:00",1760059,11.4,160.5,5.479,0.908,14.47,104.0975,9.76,11.15,22.84,0,110.1,13.36,10.55,122.5
"2010-03-14 00:50:30",1760060,9.97,154.1,5.454,1.234,11.48,104.0975,9.76,10.98,22.74,0,110.1,13.36,10.55,116.1
"2010-03-14 00:51:00",1760061,9.38,153.2,5.961,1.179,11.26,104.0975,9.76,10.89,22.67,0,110.1,13.36,10.55,115.2
"2010-03-14 00:51:30",1760062,9.56,156.5,4.71,0.937,9.99,104.0944,9.76,10.79,22.65,0,110.1,13.36,10.54,118.5
"2010-03-14 00:52:00",1760063,10.26,165,8.71,1.419,12.43,104.0831,9.73,10.97,22.89,0,110.1,13.36,10.51,127.0
"2010-03-14 00:52:30",1760064,11.48,160.8,4.97,1.767,13.93,104.0747,9.7,11.06,23,0,110.1,13.36,10.49,122.8
"2010-03-14 00:53:00",1760065,11.59,167,4.88,1.17,14.12,104.071,9.7,11.06,23.01,0,110.1,13.36,10.48,129.0
"2010-03-14 00:53:30",1760066,11.71,169.6,6.256,1.415,13.34,104.0639,9.68,11.01,22.83,0,110.2,13.36,10.46,131.6
"2010-03-14 00:54:00",1760067,10.72,158.4,5.266,1.023,11.43,104.0637,9.68,10.8,22.79,0,110.1,13.36,10.46,120.4
"2010-03-14 00:54:30",1760068,10.11,163,6.491,0.79,10.84,104.0617,9.67,10.85,22.87,0,110.1,13.36,10.46,125.0
"2010-03-14 00:55:00",1760069,9.82,167.3,7.088,1.335,12.09,104.0498,9.64,10.81,22.84,0,110.1,13.36,10.43,129.3
"2010-03-14 00:55:30",1760070,10.33,166.9,4.884,1.19,13.75,104.0332,9.6,10.81,23.09,0,110.1,13.36,10.38,128.9
"2010-03-14 00:56:00",1760071,10.64,165.5,7.918,1.38,13.18,104.0298,9.59,10.92,23.16,0,110.1,13.36,10.38,127.5
"2010-03-14 00:56:30",1760072,10.81,168.9,5.509,0.939,13.49,104.0298,9.59,10.9,23.28,0,110.1,13.36,10.38,130.9
"2010-03-14 00:57:00",1760073,10.58,170.6,4.693,1.106,13.27,104.0298,9.59,10.81,23.25,0,110.1,13.36,10.38,132.6
"2010-03-14 00:57:30",1760074,9.54,161.7,3.858,0.767,9.82,104.0275,9.58,10.66,23.09,0,110.1,13.37,10.37,123.7
"2010-03-14 00:58:00",1760075,12,172.2,6.857,1.405,12.93,104.0171,9.56,10.8,23.05,0,110.1,13.37,10.34,134.2
"2010-03-14 00:58:30",1760076,11.83,171.9,7.303,1.288,13.17,104.0005,9.52,10.82,23.02,0,110.1,13.37,10.30,133.9
"2010-03-14 00:59:00",1760077,12.16,171.8,6.093,1.183,13.4,103.9974,9.51,10.86,22.92,0,110.1,13.37,10.29,133.8
"2010-03-14 00:59:30",1760078,12.24,170.6,6.503,1.136,13.16,103.9974,9.51,10.75,22.98,0,110.1,13.37,10.29,132.6
"2010-03-14 01:00:00",1760079,11.52,168.4,7.149,1.309,12.4,103.9977,9.51,10.79,23.07,0,110.1,13.37,10.29,130.4
"2010-03-14 01:00:30",1760080,11.4,168.4,6.629,1.513,12.01,103.9905,9.49,10.67,22.98,0,110.1,13.37,10.27,130.4
"2010-03-14 01:01:00",1760081,11.58,170.7,6.511,1.45,12.62,103.9759,9.45,10.74,23.14,0,110.1,13.37,10.24,132.7
"2010-03-14 01:01:30",1760082,12.04,173,6.129,1.225,13.19,103.9703,9.44,10.78,23.09,0,110.1,13.37,10.22,135.0
"2010-03-14 01:02:00",1760083,11.25,168.9,6.388,1.299,11.67,103.9744,9.45,10.67,22.95,0,110.1,13.37,10.23,130.9
"2010-03-14 01:02:30",1760084,11.58,170.9,6.679,1.282,12.47,103.9747,9.45,10.74,22.79,0,110.1,13.37,10.23,132.9
"2010-03-14 01:03:00",1760085,10.52,165.7,3.355,0.568,10.61,103.9779,9.46,10.61,22.69,0,110.1,13.37,10.24,127.7
"2010-03-14 01:03:30",1760086,11.94,174.5,5.894,1.113,13.72,103.9727,9.44,10.69,22.67,0,110.1,13.37,10.23,136.5
"2010-03-14 01:04:00",1760087,11.59,170.9,6.957,1.347,12.37,103.9667,9.43,10.67,22.68,0,110.1,13.37,10.21,132.9
"2010-03-14 01:04:30",1760088,12.12,174,5.401,1.155,13.24,103.9587,9.41,10.69,22.85,0,110.1,13.37,10.19,136.0
"2010-03-14 01:05:00",1760089,11.81,170.5,6.614,1.323,12.25,103.9606,9.41,10.56,22.75,0,110.1,13.37,10.20,132.5
"2010-03-14 01:05:30",1760090,10.41,165.6,3.674,0.483,10.21,103.9549,9.4,10.58,22.67,0,110.1,13.4,10.18,127.6
"2010-03-14 01:06:00",1760091,11.9,173.6,6.628,1.247,12.8,103.9584,9.41,10.6,22.58,0,110.1,13.37,10.19,135.6
"2010-03-14 01:06:30",1760092,12.32,176.5,5.941,1.173,13.5,103.9605,9.41,10.59,22.8,0,110.1,13.37,10.20,138.5
"2010-03-14 01:07:00",1760093,12.28,175.2,6.353,1.197,13.84,103.9611,9.41,10.68,22.81,0,110.1,13.37,10.20,137.2
"2010-03-14 01:07:30",1760094,12.24,176.9,5.953,1.201,13.37,103.9625,9.42,10.64,22.62,0,110.2,13.37,10.20,138.9
"2010-03-14 01:08:00",1760095,11.61,173.2,6.682,1.29,11.62,103.9628,9.42,10.46,22.42,0,110.1,13.37,10.20,135.2
"2010-03-14 01:08:30",1760096,11.26,171.4,6.197,1.144,11.21,103.9583,9.41,10.51,22.51,0,110.1,13.37,10.19,133.4
"2010-03-14 01:09:00",1760097,11.68,171.8,5.961,1.274,11.42,103.9518,9.39,10.5,22.5,0,110.1,13.38,10.18,133.8
"2010-03-14 01:09:30",1760098,11.89,175.4,6.526,1.238,13.47,103.9408,9.36,10.63,22.57,0,110.1,13.38,10.15,137.4
"2010-03-14 01:10:00",1760099,12.66,178.3,5.208,0.802,14.52,103.9358,9.35,10.63,22.49,0,110.1,13.38,10.13,140.3
"2010-03-14 01:10:30",1760100,12.74,179.3,4.741,0.858,14.26,103.9304,9.34,10.59,22.45,0,110.1,13.38,10.12,141.3
"2010-03-14 01:11:00",1760101,11.22,172.1,6.223,1.226,11.35,103.9295,9.33,10.53,22.37,0,110.1,13.38,10.12,134.1
"2010-03-14 01:11:30",1760102,11.29,171.6,5.9,1.031,11.23,103.9295,9.33,10.44,22.3,0,110.1,13.38,10.12,133.6
"2010-03-14 01:12:00",1760103,11.93,174.4,6.497,1.302,12.14,103.9295,9.33,10.41,22.27,0,110,13.38,10.12,136.4
"2010-03-14 01:12:30",1760104,12.68,177.5,6.365,1.146,13.69,103.9295,9.33,10.53,22.47,0,110.1,13.38,10.12,139.5
"2010-03-14 01:13:00",1760105,12.93,179.9,3.533,0.816,14.95,103.9295,9.33,10.62,22.58,0,110.1,13.38,10.12,141.9
"2010-03-14 01:13:30",1760106,13.3,179.2,4.63,0.601,14.6,103.9295,9.33,10.64,22.64,0,110.1,13.38,10.12,141.2
"2010-03-14 01:14:00",1760107,12.21,174.4,6.814,1.285,12.28,103.9295,9.33,10.5,22.55,0,110.1,13.38,10.12,136.4
"2010-03-14 01:14:30",1760108,11.68,171.5,6.58,1.229,11.31,103.9295,9.33,10.4,22.48,0,110.1,13.38,10.12,133.5
"2010-03-14 01:15:00",1760109,11.86,172.3,6.395,1.296,11.57,103.9295,9.33,10.43,22.5,0,110.1,13.38,10.12,134.3
"2010-03-14 01:15:30",1760110,11.75,173,6.441,1.293,12.36,103.9295,9.33,10.51,22.54,0,110.1,13.38,10.12,135.0
"2010-03-14 01:16:00",1760111,12.55,175.6,6.341,1.144,13.6,103.9295,9.33,10.54,22.57,0,110.1,13.38,10.12,137.6
"2010-03-14 01:16:30",1760112,13.03,178.1,4.299,0.735,14.58,103.9295,9.33,10.61,22.63,0,110.1,13.38,10.12,140.1
"2010-03-14 01:17:00",1760113,12.62,176.1,3.971,0.932,14.19,103.9293,9.33,10.56,22.89,0,110.1,13.38,10.12,138.1
"2010-03-14 01:17:30",1760114,10.51,163.7,3.475,0.883,9.41,103.925,9.32,10.28,22.89,0,110.1,13.38,10.11,125.7
"2010-03-14 01:18:00",1760115,11.12,167.7,6.454,1.369,11.09,103.9112,9.29,10.42,23.11,0,110.1,13.37,10.07,129.7
"2010-03-14 01:18:30",1760116,11.02,166.1,5.909,0.993,10.86,103.8973,9.25,10.43,23.18,0,110.1,13.38,10.04,128.1
"2010-03-14 01:19:00",1760117,12.03,172.6,6.583,1.188,13.47,103.8957,9.25,10.57,23.4,0,110.1,13.38,10.03,134.6
"2010-03-14 01:19:30",1760118,12.78,175.9,2.966,0.778,14.42,103.8928,9.24,10.56,23.38,0,110.1,13.37,10.02,137.9
"2010-03-14 01:20:00",1760119,12.24,173.5,5.788,1.285,13.28,103.8753,9.2,10.49,23.38,0,110.1,13.37,9.98,135.5
"2010-03-14 01:20:30",1760120,11.53,171.6,6.008,1.206,11.31,103.8621,9.16,10.42,23.19,0,110.1,13.37,9.95,133.6
"2010-03-14 01:21:00",1760121,11.97,174.4,6.175,1.2,11.63,103.8618,9.16,10.26,22.82,0,110.1,13.37,9.94,136.4
"2010-03-14 01:21:30",1760122,12.19,177.2,7.155,1.256,12.55,103.8615,9.16,10.39,22.94,0,110.1,13.37,9.94,139.2
"2010-03-14 01:22:00",1760123,12.43,178.6,6.802,1.214,12.6,103.8513,9.13,10.32,22.73,0,110.1,13.37,9.92,140.6
"2010-03-14 01:22:30",1760124,12.71,181.2,5.976,1.085,13.5,103.8451,9.12,10.42,22.83,0,110.1,13.37,9.90,143.2
"2010-03-14 01:23:00",1760125,12.1,180.1,6.361,1.238,12.85,103.8448,9.12,10.35,22.82,0,110.1,13.38,9.90,142.1
"2010-03-14 01:23:30",1760126,12.04,181.8,5.372,1.177,13.6,103.8451,9.12,10.38,22.84,0,110.1,13.38,9.90,143.8
"2010-03-14 01:24:00",1760127,11.78,181,6.28,1.249,12.83,103.8474,9.12,10.32,22.78,0,110.1,13.38,9.91,143.0
"2010-03-14 01:24:30",1760128,11.18,178.5,6.425,1.265,11.91,103.8556,9.14,10.25,22.68,0,110.1,13.38,9.93,140.5
"2010-03-14 01:25:00",1760129,11.65,181.3,6.517,1.273,12.36,103.8604,9.16,10.35,22.76,0,110.1,13.38,9.94,143.3
"2010-03-14 01:25:30",1760130,11.98,181.9,6.581,1.267,12.97,103.8618,9.16,10.3,22.66,0,110.1,13.38,9.94,143.9
"2010-03-14 01:26:00",1760131,11.78,181.1,6.72,1.215,12.52,103.8618,9.16,10.37,22.65,0,110.1,13.38,9.94,143.1
"2010-03-14 01:26:30",1760132,12.13,183.2,6.086,1.165,13.46,103.8618,9.16,10.39,22.61,0,110.1,13.38,9.94,145.2
"2010-03-14 01:27:00",1760133,11.67,180.9,6.575,1.23,12.73,103.8618,9.16,10.31,22.51,0,110.1,13.38,9.94,142.9
"2010-03-14 01:27:30",1760134,11.02,177.9,6.136,1.121,11.24,103.8618,9.16,10.28,22.43,0,110.1,13.38,9.94,139.9
"2010-03-14 01:28:00",1760135,12.14,182,6.399,1.247,12.45,103.8618,9.16,10.38,22.55,0,110.1,13.38,9.94,144.0
"2010-03-14 01:28:30",1760136,12,180.9,6.539,1.289,12.23,103.8618,9.16,10.3,22.5,0,110.1,13.38,9.94,142.9
"2010-03-14 01:29:00",1760137,11.11,176.6,4.977,1.05,10.76,103.8618,9.16,10.27,22.49,0,110.1,13.39,9.94,138.6
"2010-03-14 01:29:30",1760138,12.33,184.6,5.515,1.032,13.53,103.8621,9.16,10.35,22.54,0,110.1,13.39,9.95,146.6
"2010-03-14 01:30:00",1760139,12.16,182.8,6.201,1.195,13.63,103.8621,9.16,10.42,22.57,0,110.1,13.39,9.95,144.8
"2010-03-14 01:30:30",1760140,12.1,183,6.109,1.201,13.52,103.8621,9.16,10.47,22.68,0,110.1,13.39,9.95,145.0
"2010-03-14 01:31:00",1760141,12.26,183.4,6.014,1.166,12.78,103.8626,9.16,10.32,22.59,0,110.1,13.39,9.95,145.4
"2010-03-14 01:31:30",1760142,10.95,176.3,5.483,0.951,10.78,103.8621,9.16,10.29,22.61,0,110.1,13.39,9.95,138.3
"2010-03-14 01:32:00",1760143,10.72,176.6,4.288,1.029,10.52,103.8618,9.16,10.21,22.56,0,110.1,13.39,9.94,138.6
"2010-03-14 01:32:30",1760144,12,185.1,5.62,1.101,13.61,103.8618,9.16,10.4,22.71,0,110.1,13.39,9.94,147.1
"2010-03-14 01:33:00",1760145,11.88,184.2,5.859,1.163,13.13,103.8621,9.16,10.42,22.77,0,110.1,13.39,9.95,146.2
"2010-03-14 01:33:30",1760146,11.83,183.2,6.414,1.192,13.39,103.8627,9.16,10.42,22.78,0,110.1,13.39,9.95,145.2
"2010-03-14 01:34:00",1760147,11.5,181.5,6.561,1.291,12.24,103.8627,9.16,10.45,22.87,0,110.1,13.39,9.95,143.5
"2010-03-14 01:34:30",1760148,11.3,180,6.455,1.256,11.21,103.8638,9.17,10.22,22.71,0,110.1,13.39,9.95,142.0
"2010-03-14 01:35:00",1760149,10.63,177.6,5.271,0.939,10.73,103.8641,9.17,10.36,22.87,0,110.1,13.39,9.95,139.6
"2010-03-14 01:35:30",1760150,11.85,182.8,6.47,1.201,12.41,103.8644,9.17,10.26,22.81,0,110.1,13.39,9.95,144.8
"2010-03-14 01:36:00",1760151,12.3,186.5,5.088,1.049,14.03,103.863,9.16,10.44,22.94,0,110.1,13.38,9.95,148.5
"2010-03-14 01:36:30",1760152,11.88,184.8,6.085,1.201,13.19,103.8662,9.17,10.39,22.83,0,110.1,13.38,9.96,146.8
"2010-03-14 01:37:00",1760153,11.4,182.2,6.673,1.265,12.68,103.8662,9.17,10.44,22.83,0,110.1,13.38,9.96,144.2
"2010-03-14 01:37:30",1760154,11.35,180.8,6.315,1.272,11.16,103.8668,9.17,10.23,22.63,0,110.1,13.38,9.96,142.8
"2010-03-14 01:38:00",1760155,11.61,182.9,6.526,1.283,12.31,103.8668,9.17,10.3,22.68,0,110.1,13.38,9.96,144.9
"2010-03-14 01:38:30",1760156,10.98,179.3,5.944,1.194,11.55,103.8672,9.17,10.27,22.71,0,110.1,13.39,9.96,141.3
"2010-03-14 01:39:00",1760157,12.05,183.5,5.877,1.148,13.06,103.8595,9.15,10.34,22.82,0,110.1,13.39,9.94,145.5
"2010-03-14 01:39:30",1760158,12.27,184,5.697,0.974,14.04,103.8557,9.14,10.43,22.94,0,110.1,13.39,9.93,146.0
"2010-03-14 01:40:00",1760159,11.87,181.3,6.454,1.162,13.4,103.8551,9.14,10.38,22.94,0,110.1,13.39,9.93,143.3
"2010-03-14 01:40:30",1760160,11.83,180.5,6.261,1.209,13.09,103.8555,9.14,10.37,23.02,0,110.1,13.39,9.93,142.5
"2010-03-14 01:41:00",1760161,11.34,178,6.568,1.256,11.89,103.8476,9.12,10.26,22.97,0,110.1,13.39,9.91,140.0
"2010-03-14 01:41:30",1760162,10.85,176.1,6.023,1.157,11.16,103.8429,9.11,10.34,23.03,0,110.1,13.39,9.90,138.1
"2010-03-14 01:42:00",1760163,10.53,175.5,6,1.051,11.03,103.8432,9.11,10.25,22.92,0,110.1,13.39,9.90,137.5
"2010-03-14 01:42:30",1760164,11.59,181.2,6.546,1.255,12.86,103.8437,9.11,10.33,22.85,0,110.1,13.39,9.90,143.2
"2010-03-14 01:43:00",1760165,11.61,181.6,6.722,1.234,13.28,103.8458,9.12,10.34,22.81,0,110.1,13.39,9.90,143.6
"2010-03-14 01:43:30",1760166,11.87,183.2,5.465,1.153,13.75,103.847,9.12,10.41,22.83,0,110.1,13.39,9.91,145.2
"2010-03-14 01:44:00",1760167,10.98,177.2,6.336,1.24,11.39,103.8481,9.13,10.22,22.71,0,110.1,13.39,9.91,139.2
"2010-03-14 01:44:30",1760168,11.28,179.5,6.586,1.298,11.94,103.8478,9.12,10.25,22.65,0,110.1,13.39,9.91,141.5
"2010-03-14 01:45:00",1760169,11.43,179.8,6.854,1.281,11.86,103.8478,9.12,10.18,22.55,0,110.1,13.39,9.91,141.8
"2010-03-14 01:45:30",1760170,11.85,180.3,6.225,1.283,12.93,103.8493,9.13,10.26,22.7,0,110.1,13.39,9.91,142.3
"2010-03-14 01:46:00",1760171,11.73,178,6.488,1.286,12.84,103.8508,9.13,10.35,23,0,110.1,13.39,9.92,140.0
"2010-03-14 01:46:30",1760172,12.47,180.7,5.061,1.036,13.53,103.8508,9.13,10.37,23.12,0,110.1,13.39,9.92,142.7
"2010-03-14 01:47:00",1760173,12.6,179.1,5.816,1.011,13.19,103.8517,9.13,10.21,22.99,0,110.1,13.39,9.92,141.1
"2010-03-14 01:47:30",1760174,12.45,180,5.729,1.156,12.97,103.8523,9.14,10.25,23.04,0,110.1,13.39,9.92,142.0
"2010-03-14 01:48:00",1760175,11.72,175.4,6.418,1.28,11.23,103.8404,9.11,10.18,23,0,110.1,13.39,9.89,137.4